{"data":{"norad_id":67416,"intl_designator":"2026-005N","name":"STARLINK-36487","alt_names":[],"object_type":"PAYLOAD","status":"ACTIVE","operator":null,"country":"US","launch_date":"2026-01-12","launch_site_code":"AFETR","launch_vehicle":null,"mission":null,"orbit_class":"UNKNOWN","rcs_meters":null,"size_class":null,"mass_kg":null,"dimensions":null,"purposes":["comms"],"wikipedia_slug":null,"has_3d_model":false,"image_url":null,"decayed_at":null,"tle_current":{"epoch":"2026-09-19T07:13:06.515040Z","epoch_age_seconds":179057,"freshness":"STALE","line1":"1 67416U 26005N   26262.30076985  .00005473  00000+0  20826-3 0  9992","line2":"2 67416  43.0011 224.8466 0001410 270.9773  89.0918 15.27579992 38303","mean_motion":15.27579992,"eccentricity":0.000141,"inclination_deg":43.0011,"raan_deg":224.8466,"arg_perigee_deg":270.9773,"mean_anomaly_deg":89.0918,"bstar":0.00020826,"rev_number":3830,"period_min":94.266749207331,"perigee_km":482.08169275161,"apogee_km":484.01654723745,"semimajor_km":6861.1861199945,"source":"CELESTRAK","updated_at":"2026-09-20T09:00:43.521453Z"}}}